Location: WDG Pocking
(48.4011°N, 13.3247°E)
Time: 07:52:50
(UTC+02:00)

ISS - Visible Passes

Search period start: 11 July 2025 00:00
Search period end: 21 July 2025 00:00
Orbit: 414 x 417 km, 51.6° (Epoch: 10 July)

Date Brightness Start Highest point End Pass type
(mag) Time Alt. Az. Time Alt. Az. Time Alt. Az.
11 Jul -2.7 00:25:25 10° WNW 00:28:39 46° N 00:31:55 10° ENE visible
11 Jul -3.8 02:02:15 10° WNW 02:05:37 80° NNE 02:08:58 10° ESE visible
11 Jul -2.7 03:39:19 10° W 03:42:04 24° SW 03:44:49 10° SSE visible
11 Jul -3.9 21:59:31 10° WSW 22:02:51 77° SSE 22:06:12 10° ENE visible
11 Jul -2.7 23:36:29 10° W 23:39:43 47° N 23:42:59 10° ENE visible
12 Jul -3.3 01:13:25 10° WNW 01:16:45 62° NNE 01:19:21 15° E visible
12 Jul -2.4 02:50:16 10° WNW 02:52:02 25° W 02:52:02 25° W visible
12 Jul -2.9 22:47:31 10° W 22:50:48 53° N 22:54:06 10° ENE visible
13 Jul -3.0 00:24:33 10° WNW 00:27:50 52° N 00:30:33 14° E visible
13 Jul -2.6 02:01:19 10° WNW 02:03:20 31° W 02:03:20 31° W visible
13 Jul -3.3 21:58:33 10° W 22:01:53 64° NNW 22:05:13 10° ENE visible
13 Jul -2.7 23:35:38 10° WNW 23:38:54 47° N 23:42:09 10° E visible
14 Jul -3.6 01:12:25 10° WNW 01:15:19 62° W 01:15:19 62° W visible
14 Jul -2.7 22:46:41 10° WNW 22:49:55 46° N 22:53:10 10° ENE visible
15 Jul -3.7 00:23:32 10° WNW 00:26:54 76° NNE 00:27:33 53° E visible
15 Jul -2.7 21:57:41 10° W 22:00:56 48° N 22:04:12 10° ENE visible
15 Jul -3.3 23:34:38 10° WNW 23:37:58 59° NNE 23:39:56 22° E visible
16 Jul -1.8 01:11:27 10° WNW 01:12:45 20° W 01:12:45 20° W visible
16 Jul -2.9 22:45:42 10° WNW 22:48:59 50° N 22:52:16 10° E visible
17 Jul -3.3 00:22:28 10° WNW 00:25:13 50° WSW 00:25:13 50° WSW visible
17 Jul -2.7 21:56:43 10° WNW 21:59:58 46° N 22:03:13 10° E visible
17 Jul -3.9 23:33:31 10° WNW 23:36:52 85° SSW 23:37:42 48° ESE visible
18 Jul -3.6 22:44:35 10° WNW 22:47:55 72° NNE 22:50:15 18° E visible
19 Jul -1.9 00:21:31 10° W 00:23:05 21° WSW 00:23:05 21° WSW visible
19 Jul -3.2 21:55:36 10° WNW 21:58:55 57° NNE 22:02:13 10° E visible
19 Jul -3.3 23:32:25 10° WNW 23:35:36 43° SSW 23:35:40 43° SSW visible
20 Jul -3.7 22:43:22 10° WNW 22:46:42 65° SSW 22:48:16 28° SE visible
